Location: Utrecht
(52.0907°N, 5.1214°E)
Time: 08:57:04
(UTC+01:00)

ISS - Visible Passes

Search period start: 04 March 2024 00:00
Search period end: 14 March 2024 00:00
Orbit: 414 x 422 km, 51.6° (Epoch: 04 March)

Date Brightness Start Highest point End Pass type
(mag) Time Alt. Az. Time Alt. Az. Time Alt. Az.
04 Mar -1.6 04:36:46 24° ESE 04:36:46 24° ESE 04:38:14 10° ESE visible
04 Mar -2.4 06:09:42 18° WSW 06:11:18 25° SSW 06:14:10 10° SSE visible
05 Mar -2.8 05:23:46 34° SSW 05:23:46 34° SSW 05:26:32 10° SE visible
06 Mar -1.2 04:37:55 16° SE 04:37:55 16° SE 04:38:43 10° SE visible
06 Mar -1.7 06:10:51 12° SW 06:11:38 13° SW 06:13:19 10° S visible
07 Mar -1.6 05:25:07 15° S 05:25:07 15° S 05:26:13 10° S visible
